TimeICT,TemperatureF,Dew PointF,Humidity,Sea Level PressureIn,VisibilityMPH,Wind Direction,Wind SpeedMPH,Gust SpeedMPH,PrecipitationIn,Events,Conditions,WindDirDegrees,DateUTC
12:00 AM,-9999,-9999,N/A,29.71,5.6,WSW,9.2,-,N/A,,Unknown,240,2013-08-18 17:00:00
12:30 AM,80.6,75.2,84,29.71,5.6,WSW,9.2,-,N/A,,Unknown,240,2013-08-18 17:30:00
1:00 AM,80.6,75.2,84,29.71,5.6,WSW,9.2,-,N/A,,Unknown,240,2013-08-18 18:00:00
7:00 AM,82.4,75.2,79,29.68,6.2,Calm,Calm,-,N/A,,Partly Cloudy,0,2013-08-19 00:00:00
7:30 AM,82.4,75.2,79,29.71,6.2,Calm,Calm,-,N/A,,Partly Cloudy,0,2013-08-19 00:30:00
8:00 AM,84.2,75.2,74,29.71,6.2,Calm,Calm,-,N/A,,Partly Cloudy,0,2013-08-19 01:00:00
8:30 AM,84.2,75.2,74,29.71,6.2,WSW,5.8,-,N/A,,Partly Cloudy,250,2013-08-19 01:30:00
9:00 AM,86.0,75.2,70,29.71,6.2,WSW,6.9,-,N/A,,Partly Cloudy,250,2013-08-19 02:00:00
9:30 AM,86.0,73.4,66,29.74,6.2,West,15.0,-,N/A,,Partly Cloudy,260,2013-08-19 02:30:00
10:00 AM,87.8,73.4,62,29.74,6.2,West,19.6,-,N/A,,Partly Cloudy,260,2013-08-19 03:00:00
10:30 AM,87.8,73.4,62,29.71,6.2,West,10.4,-,N/A,,Partly Cloudy,260,2013-08-19 03:30:00
11:00 AM,87.8,73.4,62,29.71,6.2,West,11.5,-,N/A,,Partly Cloudy,260,2013-08-19 04:00:00
11:30 AM,89.6,73.4,59,29.71,6.2,West,11.5,-,N/A,,Partly Cloudy,260,2013-08-19 04:30:00
12:00 PM,89.6,71.6,55,29.71,6.2,West,10.4,-,N/A,,Partly Cloudy,270,2013-08-19 05:00:00
12:30 PM,89.6,71.6,55,29.68,6.2,West,11.5,-,N/A,,Partly Cloudy,270,2013-08-19 05:30:00
1:00 PM,89.6,73.4,59,29.68,6.2,West,10.4,-,N/A,,Scattered Clouds,270,2013-08-19 06:00:00
1:30 PM,91.4,73.4,55,29.65,6.2,WNW,15.0,-,N/A,,Scattered Clouds,290,2013-08-19 06:30:00
2:00 PM,91.4,73.4,55,29.62,6.2,WNW,10.4,-,N/A,,Scattered Clouds,290,2013-08-19 07:00:00
2:30 PM,91.4,73.4,55,29.62,6.2,WNW,12.7,-,N/A,,Scattered Clouds,290,2013-08-19 07:30:00
3:00 PM,91.4,73.4,55,29.62,6.2,Calm,Calm,-,N/A,,Scattered Clouds,0,2013-08-19 08:00:00
3:30 PM,91.4,73.4,55,29.59,6.2,WNW,5.8,-,N/A,,Scattered Clouds,300,2013-08-19 08:30:00
4:00 PM,91.4,73.4,55,29.59,6.2,WNW,9.2,-,N/A,,Scattered Clouds,300,2013-08-19 09:00:00
4:30 PM,91.4,73.4,55,29.59,6.2,WNW,11.5,-,N/A,,Scattered Clouds,300,2013-08-19 09:30:00
5:00 PM,91.4,73.4,55,29.59,6.2,WNW,10.4,-,N/A,,Scattered Clouds,290,2013-08-19 10:00:00
5:30 PM,91.4,73.4,55,29.59,6.2,West,4.6,-,N/A,,Scattered Clouds,280,2013-08-19 10:30:00
6:00 PM,89.6,71.6,55,29.62,6.2,Calm,Calm,-,N/A,,Partly Cloudy,0,2013-08-19 11:00:00
6:30 PM,89.6,71.6,55,29.62,6.2,Calm,Calm,-,N/A,,Partly Cloudy,0,2013-08-19 11:30:00
7:00 PM,87.8,73.4,62,29.62,6.2,Calm,Calm,-,N/A,,Partly Cloudy,0,2013-08-19 12:00:00
7:30 PM,87.8,75.2,66,29.65,6.2,Calm,Calm,-,N/A,,Partly Cloudy,0,2013-08-19 12:30:00
8:00 PM,86.0,75.2,70,29.65,6.2,Calm,Calm,-,N/A,,Partly Cloudy,0,2013-08-19 13:00:00
8:30 PM,84.2,75.2,74,29.68,6.2,Calm,Calm,-,N/A,,Scattered Clouds,0,2013-08-19 13:30:00
9:00 PM,84.2,75.2,74,29.68,6.2,Calm,Calm,-,N/A,,Scattered Clouds,0,2013-08-19 14:00:00
9:30 PM,82.4,73.4,74,29.71,6.2,Calm,Calm,-,N/A,,Scattered Clouds,0,2013-08-19 14:30:00
10:00 PM,82.4,73.4,74,29.71,6.2,Calm,Calm,-,N/A,,Scattered Clouds,0,2013-08-19 15:00:00
10:30 PM,82.4,73.4,74,29.71,6.2,WSW,8.1,-,N/A,,Scattered Clouds,240,2013-08-19 15:30:00
11:00 PM,82.4,73.4,74,29.71,6.2,WSW,6.9,-,N/A,,Scattered Clouds,240,2013-08-19 16:00:00
11:30 PM,82.4,73.4,74,29.71,6.2,WSW,4.6,16.1,N/A,,Scattered Clouds,240,2013-08-19 16:30:00